Arlington, WA
on Wednesday, January 23, 2013

Wednesday
Previous Day Next Day
Daily Summary
 ActualAverageRecord
Temperature
Mean Temperature °F °F  
Max Temperature 41°F 38°F 57°F (2005)
Min Temperature 33°F 29°F 19°F (2008)
Degree Days
Heating Degree Days 28    
Moisture
Dew Point 35°F   
Average Humidity 91    
Maximum Humidity 100    
Minimum Humidity 81    
Precipitation
Precipitation 0.05 in in in ()
Wind
Wind Speed 1 mph   
Max Wind Speed 12 mph   
Max Gust Speed mph   
Visibility 9 miles   
Events     
Averages and records for this station are not official NWS values.
Key: T is trace of precipitation, MM is missing value
Source: NWS Daily Summary
Seasonal Weather Averages
Time(PST)TemperatureDew PointHumidity Pressure Visibility Wind DirectionWind SpeedGust SpeedPrecipitationEvents Conditions
12:15 AM 33.8°F 32.0°F 93% 29.95 in 8.0 miles Calm Calm - N/A   Overcast
12:35 AM 33.8°F 32.0°F 93% 29.94 in 7.0 miles Calm Calm - N/A   Overcast
12:55 AM 33.8°F 33.8°F 100% 29.95 in 9.0 miles Calm Calm - N/A   Overcast
1:15 AM 33.8°F 32.0°F 93% 29.96 in 8.0 miles Calm Calm - N/A   Overcast
1:35 AM 33.8°F 30.2°F 87% 29.96 in 6.0 miles Calm Calm - N/A   Overcast
1:55 AM 33.8°F 30.2°F 87% 29.94 in 7.0 miles ENE 3.5 mph - N/A   Overcast
2:15 AM 33.8°F 32.0°F 93% 29.91 in 7.0 miles ENE 8.1 mph - N/A   Overcast
2:35 AM 35.6°F 33.8°F 93% 29.95 in 10.0 miles Calm Calm - N/A   Overcast
2:55 AM 35.6°F 32.0°F 87% 29.93 in 10.0 miles Calm Calm - N/A   Overcast
3:15 AM 35.6°F 32.0°F 87% 29.96 in 10.0 miles Calm Calm - N/A   Mostly Cloudy
3:35 AM 35.6°F 32.0°F 87% 29.95 in 10.0 miles Calm Calm - N/A   Mostly Cloudy
4:15 AM 35.6°F 33.8°F 93% 29.95 in 10.0 miles NE 6.9 mph - N/A   Overcast
4:35 AM 35.6°F 33.8°F 93% 29.97 in 10.0 miles Calm Calm - N/A   Overcast
4:55 AM 35.6°F 33.8°F 93% 29.96 in 10.0 miles Calm Calm - N/A   Overcast
5:15 AM 35.6°F 33.8°F 93% 29.94 in 10.0 miles Calm Calm - N/A   Overcast
5:35 AM 35.6°F 32.0°F 87% 29.93 in 10.0 miles Calm Calm - N/A   Overcast
5:55 AM 35.6°F 33.8°F 93% 29.92 in 10.0 miles Calm Calm - N/A   Overcast
6:15 AM 35.6°F 33.8°F 93% 29.91 in 10.0 miles Calm Calm - N/A   Overcast
6:35 AM 35.6°F 33.8°F 93% 29.91 in 10.0 miles Calm Calm - N/A   Overcast
6:55 AM 35.6°F 33.8°F 93% 29.91 in 10.0 miles Calm Calm - N/A   Overcast
7:15 AM 35.6°F 33.8°F 93% 29.90 in 10.0 miles Calm Calm - N/A   Overcast
7:35 AM 35.6°F 33.8°F 93% 29.89 in 10.0 miles Calm Calm - N/A   Overcast
7:55 AM 35.6°F 33.8°F 93% 29.89 in 10.0 miles Calm Calm - N/A   Overcast
8:15 AM 35.6°F 33.8°F 93% 29.89 in 10.0 miles Calm Calm - N/A   Overcast
8:35 AM 35.6°F 33.8°F 93% 29.89 in 10.0 miles Calm Calm - N/A   Overcast
8:55 AM 35.6°F 33.8°F 93% 29.90 in 10.0 miles Calm Calm - N/A   Overcast
9:15 AM 37.4°F 33.8°F 87% 29.89 in 10.0 miles Calm Calm - N/A   Overcast
9:35 AM 37.4°F 33.8°F 87% 29.90 in 10.0 miles Calm Calm - N/A   Overcast
9:55 AM 37.4°F 33.8°F 87% 29.90 in 10.0 miles Calm Calm - N/A   Overcast
10:15 AM 39.2°F 33.8°F 81% 29.90 in 10.0 miles Calm Calm - N/A   Overcast
10:35 AM 39.2°F 33.8°F 81% 29.90 in 10.0 miles Calm Calm - N/A   Overcast
10:55 AM 39.2°F 35.6°F 87% 29.91 in 10.0 miles Calm Calm - N/A   Overcast
11:15 AM 39.2°F 35.6°F 87% 29.90 in 10.0 miles Calm Calm - N/A   Overcast
11:35 AM 39.2°F 35.6°F 87% 29.90 in 7.0 miles Calm Calm - N/A   Overcast
11:55 AM 37.4°F 35.6°F 93% 29.89 in 8.0 miles Calm Calm - N/A   Overcast
12:15 PM 37.4°F 35.6°F 93% 29.88 in 7.0 miles Calm Calm - N/A   Overcast
12:35 PM 39.2°F 35.6°F 87% 29.87 in 10.0 miles Calm Calm - N/A   Overcast
12:55 PM 39.2°F 35.6°F 87% 29.86 in 9.0 miles NW 4.6 mph - N/A   Overcast
1:15 PM 39.2°F 37.4°F 93% 29.86 in 9.0 miles West 6.9 mph - N/A   Overcast
1:35 PM 39.2°F 37.4°F 93% 29.86 in 8.0 miles Calm Calm - N/A   Overcast
1:55 PM 39.2°F 37.4°F 93% 29.86 in 7.0 miles Calm Calm - N/A   Overcast
2:15 PM 39.2°F 37.4°F 93% 29.86 in 5.0 miles Calm Calm - N/A   Overcast
2:35 PM 39.2°F 37.4°F 93% 29.88 in 4.0 miles South 3.5 mph - N/A   Overcast
2:55 PM 39.2°F 37.4°F 93% 29.88 in 5.0 miles SSE 6.9 mph - 0.01 in   Overcast
3:15 PM 39.2°F 37.4°F 93% 29.88 in 7.0 miles South 8.1 mph - N/A   Overcast
3:35 PM 39.2°F 37.4°F 93% 29.89 in 7.0 miles Calm Calm - N/A   Overcast
3:55 PM 39.2°F 37.4°F 93% 29.91 in 9.0 miles Calm Calm - N/A   Overcast
4:15 PM 39.2°F 37.4°F 93% 29.92 in 9.0 miles SSW 3.5 mph - N/A   Overcast
4:35 PM 39.2°F 37.4°F 93% 29.92 in 9.0 miles Calm Calm - 0.01 in   Overcast
4:55 PM 39.2°F 37.4°F 93% 29.94 in 8.0 miles SSW 4.6 mph - 0.02 in   Overcast
5:15 PM 39.2°F 37.4°F 93% 29.95 in 7.0 miles Calm Calm - N/A   Overcast
5:35 PM 39.2°F 37.4°F 93% 29.96 in 10.0 miles Calm Calm - 0.01 in   Overcast
5:55 PM 39.2°F 37.4°F 93% 29.97 in 7.0 miles Calm Calm - 0.01 in   Overcast
6:15 PM 39.2°F 37.4°F 93% 29.97 in 7.0 miles Calm Calm - N/A   Overcast
6:35 PM 39.2°F 37.4°F 93% 29.97 in 5.0 miles SSE 3.5 mph - N/A   Overcast
6:55 PM 39.2°F 37.4°F 93% 29.98 in 10.0 miles SSE 6.9 mph - N/A   Overcast
7:15 PM 39.2°F 37.4°F 93% 29.98 in 10.0 miles SE 11.5 mph - N/A   Overcast
7:35 PM 39.2°F 37.4°F 93% 30.00 in 10.0 miles SSE 6.9 mph - N/A   Overcast
8:15 PM 41.0°F 37.4°F 87% 30.03 in 10.0 miles SSE 9.2 mph - N/A   Overcast
8:35 PM 41.0°F 37.4°F 87% 30.04 in 10.0 miles SSE 9.2 mph - N/A   Overcast
8:55 PM 39.2°F 37.4°F 93% 30.06 in 10.0 miles South 6.9 mph - N/A   Overcast
9:15 PM 41.0°F 37.4°F 87% 30.06 in 10.0 miles South 5.8 mph - N/A   Overcast
9:55 PM 39.2°F 37.4°F 93% 30.09 in 10.0 miles SSE 6.9 mph - N/A   Overcast
10:15 PM 39.2°F 37.4°F 93% 30.10 in 10.0 miles SSE 5.8 mph - N/A   Overcast
10:35 PM 39.2°F 37.4°F 93% 30.11 in 10.0 miles SE 9.2 mph - N/A   Overcast
10:55 PM 39.2°F 37.4°F 93% 30.12 in 10.0 miles SE 6.9 mph - N/A   Overcast
11:15 PM 39.2°F 37.4°F 93% 30.13 in 8.0 miles SSE 3.5 mph - N/A   Overcast
11:35 PM 39.2°F 37.4°F 93% 30.14 in 4.0 miles Calm Calm - 0.01 in   Overcast
11:55 PM 39.2°F 37.4°F 93% 30.15 in 7.0 miles Calm Calm - 0.01 in   Overcast
Moon Phase
Jan. 23 Jan. 26 Feb. 03 Feb. 10 Feb. 17
Sunrise:07:46 AM (PST) Moon Rise:02:05 PM (PST)1/23
Sunset:04:54 PM (PST) Moon Set:05:06 AM (PST)1/23

Copyright © 2014 The Weather Underground, Inc.